• In Hungary
  • List of Countries
  • For 7 days
  • Water Temperature
  • Satellite Maps
  • Weather Map
  • News
  • Weather Widgets
  • user-avatar
    Login

    Hourly Weather Fleetwood

    Today, 16 July, Monday

    Time Temperature Precipitation Wind Pressure Humidity
    00:00 +17°C° 0 mm 3 mps 759 mmHg 87%
    01:00 +17°C° 0.3 mm 3 mps 759 mmHg 88%
    02:00 +17°C° 0.3 mm 3 mps 759 mmHg 89%
    03:00 +17°C° 0.3 mm 3 mps 759 mmHg 89%
    04:00 +17°C° 0.5 mm 3 mps 759 mmHg 89%
    05:00 +18°C° 0.5 mm 3 mps 759 mmHg 90%
    06:00 +18°C° 0 mm 2 mps 759 mmHg 91%
    07:00 +18°C° 0.4 mm 2 mps 759 mmHg 90%
    08:00 +19°C° 0.4 mm 2 mps 759 mmHg 89%
    09:00 +19°C° 0.4 mm 2 mps 759 mmHg 88%
    10:00 +19°C° 1 mm 3 mps 759 mmHg 89%
    11:00 +19°C° 1 mm 3 mps 759 mmHg 90%
    12:00 +19°C° 1 mm 2 mps 759 mmHg 90%
    13:00 +19°C° 1 mm 2 mps 759 mmHg 90%
    14:00 +19°C° 1 mm 2 mps 759 mmHg 90%
    15:00 +19°C° 1 mm 2 mps 759 mmHg 90%
    16:00 +19°C° 0.3 mm 3 mps 759 mmHg 88%
    17:00 +19°C° 0.3 mm 3 mps 759 mmHg 86%
    18:00 +19°C° 0.3 mm 3 mps 759 mmHg 83%
    19:00 +18°C° 0 mm 3 mps 759 mmHg 84%
    20:00 +17°C° 0 mm 3 mps 759 mmHg 85%
    21:00 +16°C° 0 mm 3 mps 759 mmHg 85%
    22:00 +14°C° 0 mm 3 mps 759 mmHg 86%
    23:00 +14°C° 0 mm 3 mps 759 mmHg 87%

    Tomorrow, 17 July, Tuesday

    Time Temperature Precipitation Wind Pressure Humidity
    00:00 +13°C° 0 mm 3 mps 759 mmHg 88%
    01:00 +13°C° 0 mm 3 mps 759 mmHg 89%
    02:00 +13°C° 0 mm 3 mps 759 mmHg 89%
    03:00 +13°C° 0 mm 3 mps 759 mmHg 90%
    04:00 +14°C° 0 mm 3 mps 760 mmHg 89%
    05:00 +14°C° 0 mm 3 mps 760 mmHg 88%
    06:00 +16°C° 0 mm 3 mps 760 mmHg 88%
    07:00 +17°C° 0.1 mm 3 mps 760 mmHg 83%
    08:00 +18°C° 0.1 mm 3 mps 760 mmHg 78%
    09:00 +19°C° 0.1 mm 4 mps 760 mmHg 73%
    10:00 +19°C° 0.1 mm 4 mps 760 mmHg 71%
    11:00 +19°C° 0.1 mm 4 mps 760 mmHg 69%
    12:00 +20°C° 0.1 mm 5 mps 760 mmHg 68%
    13:00 +20°C° 0 mm 5 mps 760 mmHg 67%
    14:00 +20°C° 0 mm 5 mps 760 mmHg 67%
    15:00 +19°C° 0 mm 5 mps 760 mmHg 67%
    16:00 +19°C° 0 mm 5 mps 760 mmHg 68%
    17:00 +17°C° 0 mm 5 mps 761 mmHg 69%
    18:00 +18°C° 0 mm 4 mps 761 mmHg 70%
    19:00 +15°C° 0 mm 4 mps 761 mmHg 74%
    20:00 +14°C° 0 mm 3 mps 761 mmHg 77%
    21:00 +13°C° 0 mm 3 mps 761 mmHg 81%
    22:00 +14°C° 0 mm 2 mps 762 mmHg 82%
    23:00 +13°C° 0 mm 2 mps 762 mmHg 83%

    Day after tomorrow, 18 July, Wednesday

    Time Temperature Precipitation Wind Pressure Humidity
    00:00 +13°C° 0 mm 2 mps 762 mmHg 84%
    01:00 +13°C° 0 mm 2 mps 762 mmHg 85%
    02:00 +13°C° 0 mm 2 mps 762 mmHg 86%
    03:00 +12°C° 0 mm 2 mps 762 mmHg 86%
    04:00 +13°C° 0.1 mm 2 mps 762 mmHg 86%
    05:00 +13°C° 0.1 mm 3 mps 762 mmHg 85%
    06:00 +13°C° 0.1 mm 3 mps 762 mmHg 84%
    07:00 +16°C° 0.1 mm 3 mps 762 mmHg 79%
    08:00 +17°C° 0.1 mm 3 mps 762 mmHg 74%
    09:00 +19°C° 0.1 mm 3 mps 762 mmHg 69%
    10:00 +20°C° 0.1 mm 3 mps 762 mmHg 66%
    11:00 +21°C° 0.1 mm 3 mps 762 mmHg 63%
    12:00 +23°C° 0.1 mm 2 mps 762 mmHg 60%
    13:00 +23°C° 0.1 mm 2 mps 762 mmHg 61%
    14:00 +22°C° 0.1 mm 3 mps 762 mmHg 62%
    15:00 +22°C° 0.1 mm 3 mps 762 mmHg 62%
    16:00 +21°C° 0 mm 3 mps 762 mmHg 65%
    17:00 +21°C° 0 mm 3 mps 763 mmHg 67%
    18:00 +21°C° 0 mm 3 mps 763 mmHg 70%
    19:00 +19°C° 0 mm 2 mps 763 mmHg 74%
    20:00 +18°C° 0 mm 2 mps 763 mmHg 79%
    21:00 +16°C° 0 mm 2 mps 764 mmHg 83%
    22:00 +16°C° 0 mm 2 mps 764 mmHg 84%
    23:00 +15°C° 0 mm 1 mps 764 mmHg 85%

    19 July, Thursday

    Time Temperature Precipitation Wind Pressure Humidity
    00:00 +15°C° 0 mm 1 mps 764 mmHg 85%
    01:00 +15°C° 0 mm 1 mps 764 mmHg 86%
    02:00 +15°C° 0 mm 1 mps 764 mmHg 86%
    03:00 +14°C° 0 mm 1 mps 764 mmHg 86%
    04:00 +15°C° 0 mm 1 mps 764 mmHg 85%
    05:00 +15°C° 0 mm 1 mps 764 mmHg 84%
    06:00 +16°C° 0 mm 1 mps 764 mmHg 83%
    07:00 +18°C° 0 mm 1 mps 764 mmHg 78%
    08:00 +18°C° 0 mm 2 mps 764 mmHg 72%
    09:00 +19°C° 0 mm 2 mps 764 mmHg 66%
    10:00 +20°C° 0 mm 2 mps 764 mmHg 63%
    11:00 +21°C° 0 mm 2 mps 764 mmHg 61%
    12:00 +21°C° 0 mm 2 mps 763 mmHg 58%
    13:00 +21°C° 0 mm 3 mps 763 mmHg 58%
    14:00 +22°C° 0 mm 3 mps 763 mmHg 57%
    15:00 +22°C° 0 mm 3 mps 763 mmHg 57%
    16:00 +21°C° 0 mm 3 mps 763 mmHg 59%
    17:00 +20°C° 0 mm 3 mps 763 mmHg 62%
    18:00 +20°C° 0 mm 3 mps 763 mmHg 64%
    19:00 +18°C° 0 mm 3 mps 763 mmHg 69%
    20:00 +17°C° 0 mm 2 mps 763 mmHg 73%
    21:00 +15°C° 0 mm 2 mps 763 mmHg 78%
    22:00 +15°C° 0 mm 2 mps 763 mmHg 79%
    23:00 +14°C° 0 mm 2 mps 763 mmHg 80%

    20 July, Friday

    Time Temperature Precipitation Wind Pressure Humidity
    00:00 +14°C° 0 mm 1 mps 763 mmHg 81%
    01:00 +13°C° 0 mm 1 mps 763 mmHg 82%
    02:00 +13°C° 0 mm 1 mps 763 mmHg 83%
    03:00 +13°C° 0 mm 1 mps 762 mmHg 83%
    04:00 +14°C° 0 mm 1 mps 762 mmHg 82%
    05:00 +14°C° 0 mm 2 mps 762 mmHg 81%
    06:00 +15°C° 0 mm 2 mps 762 mmHg 81%
    07:00 +16°C° 0 mm 3 mps 762 mmHg 78%
    08:00 +17°C° 0 mm 3 mps 762 mmHg 76%
    09:00 +18°C° 0 mm 4 mps 762 mmHg 73%
    10:00 +18°C° 0.7 mm 4 mps 761 mmHg 74%
    11:00 +18°C° 0.7 mm 4 mps 761 mmHg 75%
    12:00 +18°C° 0.7 mm 4 mps 761 mmHg 76%
    13:00 +18°C° 0.4 mm 4 mps 761 mmHg 79%
    14:00 +17°C° 0.4 mm 4 mps 761 mmHg 83%
    15:00 +15°C° 0.4 mm 4 mps 761 mmHg 86%
    16:00 +15°C° 0.1 mm 5 mps 761 mmHg 86%
    17:00 +15°C° 0.1 mm 5 mps 760 mmHg 85%
    18:00 +16°C° 0.1 mm 5 mps 760 mmHg 85%
    19:00 +15°C° 0.2 mm 5 mps 760 mmHg 87%
    20:00 +15°C° 0.2 mm 5 mps 760 mmHg 88%
    21:00 +15°C° 0.2 mm 5 mps 760 mmHg 90%
    22:00 +15°C° 0.2 mm 5 mps 760 mmHg 91%
    23:00 +15°C° 0.2 mm 5 mps 760 mmHg 92%

    21 July, Saturday

    Time Temperature Precipitation Wind Pressure Humidity
    00:00 +15°C° 0.2 mm 5 mps 760 mmHg 93%
    01:00 +15°C° 0.1 mm 5 mps 760 mmHg 92%
    02:00 +14°C° 0.1 mm 5 mps 760 mmHg 92%
    03:00 +14°C° 0.1 mm 5 mps 760 mmHg 91%
    04:00 +14°C° 0 mm 5 mps 760 mmHg 90%
    05:00 +14°C° 0 mm 5 mps 760 mmHg 88%
    06:00 +14°C° 0 mm 5 mps 760 mmHg 87%
    07:00 +14°C° 0.1 mm 5 mps 760 mmHg 84%
    08:00 +15°C° 0.1 mm 5 mps 761 mmHg 81%
    09:00 +16°C° 0.1 mm 5 mps 761 mmHg 79%
    10:00 +16°C° 0.1 mm 5 mps 761 mmHg 76%
    11:00 +17°C° 0.1 mm 6 mps 761 mmHg 74%
    12:00 +19°C° 0.1 mm 6 mps 761 mmHg 72%
    13:00 +19°C° 0 mm 6 mps 762 mmHg 71%
    14:00 +19°C° 0 mm 6 mps 762 mmHg 70%
    15:00 +20°C° 0 mm 6 mps 762 mmHg 68%
    16:00 +19°C° 0 mm 6 mps 762 mmHg 70%
    17:00 +19°C° 0 mm 6 mps 762 mmHg 71%
    18:00 +19°C° 0 mm 6 mps 762 mmHg 73%
    19:00 +16°C° 0 mm 5 mps 763 mmHg 77%
    20:00 +15°C° 0 mm 5 mps 763 mmHg 82%
    21:00 +14°C° 0 mm 4 mps 763 mmHg 86%
    22:00 +14°C° 0 mm 4 mps 764 mmHg 87%
    23:00 +13°C° 0 mm 4 mps 764 mmHg 88%
    Show more